Domov               UVHVVR             MKGP            O straneh              
ZDRAVSTVENO VARSTVO RASTLIN
  MREŽA AGROMET. POSTAJ
 ► PROGNOSTIČNA OBVESTILA
AGROMETEOROLOŠKI PODATKI -
ARSO
OBVLADOVANJE TVEGANJ ZARADI
NEUGODNIH VREMENSKIH RAZMER
  ► NARAVNE NESREČE
  ► SUŠA/MOČA
  ► NAMAKANJE
  ► ŽLED (gozdarstvo)
KARTOGRAFSKI PRIKAZI
SPLETNE POVEZAVE
PROJEKTI IN PUBLIKACIJE

AGROMETEOROLOŠKA MREŽA: VREMENSKE POSTAJE IN FENOLOŠKA OPAZOVANJA

Pregled podatkov za lokacijo Bilje FURS, meteorološka postaja 859083

Pregled senzorjev na lokaciji

ID Ime Zadnja
vrednost
Datum
zadnje
spremembe
Tip
senzorja
3958 Temperatura 2 m ( °C) 16,27 °C 18.10.2017 17:59 50YA
3959 Relativna vlaga 2 m (% RH) 86,03 % RH 18.10.2017 18:00 50YA
3963 Omočenost lista (U) 0 U 18.10.2017 18:00 A730WET
3964 Padavine 0.2 mm (mm) 0 mm 18.10.2017 18:00 Rain-O-Matic

Pregled podatkov zadnjih 24 ur

Zap.
št.
Datum in čas Bilje FURS
Omočenost
lista
Padavine
0.2
mm
Relativna
vlaga
2
m
Temperatura
2
m
0 18.10.2017 17:00 0 0 86,03 16,27
1 18.10.2017 16:30 0 0 79,46 17,53
2 18.10.2017 16:00 0 0 74,71 18,63
3 18.10.2017 15:30 0 0 71,18 19,35
4 18.10.2017 15:00 0 0 68,87 19,78
5 18.10.2017 14:30 0 0 70,18 19,81
6 18.10.2017 14:00 0 0 70,88 19,64
7 18.10.2017 13:30 0 0 72,3 19,54
8 18.10.2017 13:00 0 0 72,09 19,64
9 18.10.2017 12:30 0 0 73,79 19,51
10 18.10.2017 12:00 0 0 76,29 19,14
11 18.10.2017 11:30 0 0 78,02 18,57
12 18.10.2017 11:00 0 0 80,69 17,55
13 18.10.2017 10:30 0 0 81,51 16,61
14 18.10.2017 10:00 0 0 85,04 15,13
15 18.10.2017 09:30 0 0 91,81 13,93
16 18.10.2017 09:00 3 0 99,89 12,03
17 18.10.2017 08:30 10 0 100 10,12
18 18.10.2017 08:00 10 0 100 8,67
19 18.10.2017 07:30 4 0 100 7,11
20 18.10.2017 07:00 0 0 100 6,24
21 18.10.2017 06:30 0 0 100 6,29
22 18.10.2017 06:00 0 0 100 6,9
23 18.10.2017 05:30 0 0 100 7,28
24 18.10.2017 05:00 0 0 100 7,24
25 18.10.2017 04:30 0 0 100 7,48
26 18.10.2017 04:00 0 0 100 7,71
27 18.10.2017 03:30 0 0 100 7,96
28 18.10.2017 03:00 0 0 100 8,51
29 18.10.2017 02:30 0 0 100 8,87
30 18.10.2017 02:00 0 0 100 9,25
31 18.10.2017 01:30 0 0 100 9,09
32 18.10.2017 01:00 0 0 100 9,34
33 18.10.2017 00:30 0 0 100 9,87
34 18.10.2017 00:00 0 0 100 10,46
35 17.10.2017 23:30 0 0 99,93 10,41
36 17.10.2017 23:00 0 0 99,28 10,39
37 17.10.2017 22:30 0 0 98,86 10,86
38 17.10.2017 22:00 0 0 98,77 11,43
39 17.10.2017 21:30 0 0 99,49 12,1
40 17.10.2017 21:00 0 0 99,82 12,3
41 17.10.2017 20:30 0 0 99,05 11,84
42 17.10.2017 20:00 0 0 97,5 11,86
43 17.10.2017 19:30 0 0 97,15 12,34
44 17.10.2017 19:00 0 0 96,52 12,88
© 2011 Ministrstvo za kmetijstvo, gozdarstvo in prehrano. Vse pravice pridržane.